TITAN 3C TRANSTAGE DEB, 20672

Orbit data source: Space-Track

TITAN 3C TRANSTAGE DEB, 20672 is space debris in HEO originally from a launch on Tue, 21 Dec 1965 UTC launched from the Air Force Eastern Test Range (AFETR). Debris objects in space refer to the collection of defunct objects orbiting the Earth. Examples of debris include non-operational satellites, rocket bodies, and fragments generated from explosions, collisions, or faulty payload assembly.

Loading next visibility...
Identifier
20672, 1965-108AD
Orbit
HEO
Last TLE update
1 day ago
Origin
Manufacturer
Unknown
Mission
Spacecraft
Bus & Motor
Unknown
Mass
Unknown
Launch date (UTC)
1965-12-21 (60 years ago)
Launch vehicle
Unknown
Launch site
Air Force Eastern Test Range (AFETR)
Object type
Payload
Rocket body
Debris
Shape & HBR
Unknown
Radar Cross Section
Small (<0.1 m²)

Expand to show TLE details & history

TLE from 1 day ago
0 TITAN 3C TRANSTAGE DEB
1 20672U 65108AD  25187.55001641 -.00000194  00000-0 -50887-3 0  9999
2 20672  27.1905 355.5395 6802503  69.6559 355.3528  2.70051298 38187
Epoch: 2025-07-06T13:12Z
TLE epoch observation values (Epoch: 2025-07-06T13:12:01.417Z)
Latitude
15.97222°
Longitude
-93.5998°
Altitude
1,057.173 km
Speed
9.431 km/s
True Right ascension
01h 56m 42s
True Declination
15° 53' 06"
Sunlit
Object was in daylight at epoch
Visualization orbit readout
Latitude
-25.54224°
Longitude
120.55779°
Altitude
30,236.465 km
Speed
1.864 km/s
Apparent Right ascension
16h 41m 48s
Apparent Declination
-29° 13' 08"
Sunlit
Object is in daylight
Visualization observer readout
Local Sidereal Time
08:28:36
Azimuth
95.241° ESE
Elevation
-42.903°
Doppler factor
1
Orbital elements
Apogee altitude
30,227.577 km
Perigee altitude
587.888 km
Semi-major axis
21,785.87 km
Eccentricity
0.68025
Inclination
27.1905°
RAAN
355.5395°
Arg. of periapsis
69.6559°
True anomaly
Unknown
Mean anomaly
355.3528°
Eccentric anomaly
Unknown
Mean motion
0.67496 °/min
Orbital period
533.36 mins
BSTAR
-0.00050887
Loading maneuver chart data...
Loading SW <> Apogee altitude chart data...

TITAN 3C TRANSTAGE DEB Visibility forecast

Observer location: undefined°, undefined°

Span
Click to sort rows by Start time (UTC) header in descending order
Start Az.
Max El. time (UTC)
Max El. Az.
Max El.
End time (UTC)
End Az.
300 mins2025-07-08 01:21:51.789Z238.712° WSW2025-07-08 02:01:51.789Z202.931° SW20.027°2025-07-08 06:21:51.789Z199.601° SSW
13 mins2025-07-08 18:44:51.789Z204.121° SW2025-07-08 18:46:51.789Z171.411° S24.769°2025-07-08 18:57:51.789Z117.688° SE
|